Regional Weather Roundup
Issued by NWS

Home | Current Version | Previous Version | Graphics & Text | Print | Product List | Glossary On
Versions: 1 2 3 4 5 6 7 8 9 10 11 12 13 14 15 16 17 18 19 20 21 22 23 24 25 26 27 28 29 30 31 32 33 34 35 36 37 38 39 40 41 42 43 44 45 46 47 48 49 50
000
ASUS43 KFSD 201302
RWRSD

WEATHER ROUNDUP FOR SOUTH DAKOTA
NATIONAL WEATHER SERVICE SIOUX FALLS SD
800 AM CDT SUN MAY 20 2018

NOTE: "FAIR" INDICATES FEW OR NO CLOUDS BELOW 12,000 FEET WITH NO
SIGNIFICANT WEATHER AND/OR OBSTRUCTIONS TO VISIBILITY.


SDZ001>005-009-010-012>017-201400-
NORTHWEST AND NORTH CENTRAL SOUTH DAKOTA

CITY           SKY/WX    TMP DP  RH WIND       PRES   REMARKS
BUFFALO          N/A     45  35  68 CALM      30.18S
FAITH            N/A     47  40  76 NE5       30.25S
MOBRIDGE       SUNNY     49  43  80 NW5       30.24S
$$

SDZ012>016-024>037-041>051-057-063-072>074-201400-
SOUTHWEST AND SOUTH CENTRAL SOUTH DAKOTA

CITY           SKY/WX    TMP DP  RH WIND       PRES   REMARKS
RAPID CTY ARPT MOSUNNY   47  36  65 CALM      30.26R
PIERRE         MOSUNNY   47  39  74 E6        30.24R
CUSTER         MOSUNNY   40  32  73 E6        30.25R
ELLSWORTH AFB  MOSUNNY   44  42  92 CALM      30.26R
PHILIP         SUNNY     45  42  89 CALM      30.25R
PINE RIDGE     MOSUNNY   41  41 100 CALM      30.26R
SPEARFISH      FAIR      43  37  81 E5        30.24S
WINNER         CLOUDY    48  39  71 N6        30.24R
$$

SDZ004>011-016>023-039-040-201400-
NORTHEAST SOUTH DAKOTA

CITY           SKY/WX    TMP DP  RH WIND       PRES   REMARKS
ABERDEEN       MOSUNNY   49  38  65 N6        30.26R
WATERTOWN      SUNNY     49  38  65 E13       30.23R
BROOKINGS      CLOUDY    47  37  68 E12       30.22R
SISSETON         N/A     50  39  66 CALM      30.26R
$$

SDZ017-020-022-023-036>040-048>070-201400-
SOUTHEAST SOUTH DAKOTA

CITY           SKY/WX    TMP DP  RH WIND       PRES   REMARKS
SIOUX FALLS    CLOUDY    49  39  68 NE15G24   30.18S
HURON          SUNNY     50  41  71 NE5       30.23S
CHAMBERLAIN    SUNNY     50  40  67 NE5       30.24R
MITCHELL       CLOUDY    50  43  77 NE13      30.22R
YANKTON        CLOUDY    51  46  83 NE9       30.18R
$$

ABBREVIATIONS USED IN REMARKS
   TC - TEMPERATURE IN CELSIUS
  WCI - WIND CHILL INDEX
   HX - HEAT INDEX
  VSB - VISIBILITY





USA.gov is the U.S. government's official web portal to all federal, state and local government web resources and services.